Location: Mentone
(34.5413°N, 85.5351°W)
Time: 06:30:45
(UTC-05:00)

A-11 Canister half - Visible Passes

Search period start: 22 May 2015 00:00
Search period end: 01 June 2015 00:00
Orbit: 1527 x 1682 km, 47.3° (Epoch: 21 May)

Date Brightness Start Highest point End Pass type
(mag) Time Alt. Az. Time Alt. Az. Time Alt. Az.
22 May 8.8 01:34:39 72° SW 01:35:52 89° NNW 01:45:30 10° NE visible
22 May 9.9 03:32:56 10° W 03:41:51 43° NNW 03:51:00 10° NE visible
22 May 10.5 23:15:21 16° E 23:15:21 16° E 23:17:22 10° ENE visible
23 May 8.7 01:13:36 79° SW 01:14:19 87° SE 01:23:54 10° NE visible
23 May 9.8 03:11:51 12° W 03:20:13 44° NNW 03:29:23 10° NE visible
23 May 10.6 22:54:13 14° E 22:54:13 14° E 22:55:37 10° ENE visible
24 May 8.7 00:52:27 82° S 00:52:46 84° SE 01:02:20 10° NE visible
24 May 9.8 02:50:41 14° W 02:58:35 45° NNW 03:07:46 10° NE visible
24 May 10.3 04:56:48 10° WNW 05:05:40 40° N 05:14:48 10° ENE visible
24 May 10.6 22:32:56 12° E 22:32:56 12° E 22:33:50 10° E visible
25 May 8.7 00:31:09 80° SSE 00:31:14 80° SE 00:40:45 10° NE visible
25 May 9.8 02:29:23 15° W 02:36:57 46° NNW 02:46:09 10° NE visible
25 May 10.3 04:35:13 10° WNW 04:44:00 40° N 04:53:06 10° ENE visible
25 May 10.6 22:11:30 11° E 22:11:30 11° E 22:12:01 10° E visible
26 May 8.7 00:09:42 77° SE 00:09:42 77° SE 00:19:10 10° ENE visible
26 May 9.7 02:07:54 16° W 02:15:20 47° NNW 02:24:32 10° NE visible
26 May 10.3 04:13:36 10° WNW 04:22:22 39° N 04:31:24 10° ENE visible
26 May 10.6 21:49:46 11° E 21:49:46 11° E 21:50:10 10° E visible
26 May 8.7 23:47:57 73° SSE 23:48:10 74° SE 23:57:36 10° ENE visible
27 May 9.7 01:46:07 15° W 01:53:43 48° NNW 02:02:56 10° NE visible
27 May 10.2 03:51:59 10° WNW 04:00:42 39° N 04:09:42 10° ENE visible
27 May 10.5 21:27:35 11° E 21:27:35 11° E 21:28:17 10° E visible
27 May 8.8 23:25:42 66° S 23:26:39 70° SE 23:36:01 10° ENE visible
28 May 9.6 01:23:48 13° W 01:32:06 50° NNW 01:41:20 10° NE visible
28 May 10.2 03:30:23 10° WNW 03:39:03 38° N 03:48:00 10° ENE visible
28 May 10.3 21:04:07 14° ESE 21:04:07 14° ESE 21:06:20 10° E visible
28 May 8.8 23:01:59 45° SSW 23:05:07 67° SE 23:14:26 10° ENE visible
29 May 9.6 01:01:29 10° W 01:10:30 51° NNW 01:19:43 10° NE visible
29 May 10.2 03:08:46 10° WNW 03:17:25 38° N 03:26:18 10° ENE visible
29 May 10.1 20:35:39 10° SSE 20:39:38 14° SE 20:44:18 10° E visible
29 May 8.8 22:34:30 10° SW 22:43:35 64° SE 22:52:51 10° ENE visible
30 May 9.5 00:39:50 10° W 00:48:54 52° NNW 00:58:08 10° NE visible
30 May 10.2 02:47:08 10° WNW 02:55:46 38° N 03:04:37 10° ENE visible
30 May 9.8 04:53:05 10° NW 05:02:30 59° NNE 05:12:15 10° ESE visible
30 May 10.2 20:14:51 10° SE 20:18:09 13° SE 20:22:11 10° E visible
30 May 8.9 22:13:02 10° SSW 22:22:05 60° SE 22:31:15 10° ENE visible
31 May 9.5 00:18:13 10° W 00:27:18 54° NNW 00:36:33 10° NE visible
31 May 10.2 02:25:31 10° WNW 02:34:07 38° N 02:42:56 10° ENE visible
31 May 9.8 04:31:31 10° NW 04:40:54 57° NNE 04:50:35 10° ESE visible
31 May 8.9 21:51:34 10° SSW 22:00:34 57° SE 22:09:40 10° ENE visible
